,,,PA_Meas_PMT16A,,PR_Meas_QMR101_102,,RH_Meas_QMH101,,SR_Meas_QMS101,,TA_Meas_QMH101,,GenWind,,GenWind,
date,time,status,PA,status,PR,status,RH,status,SR,status,TA,status,DirAvg,status,SpdAvg,
2011-08-05, 00:00:04,VALID,1000.66,VALID,0,VALID,76.7921,VALID,0,VALID,24.4233,VALID,142,VALID,0.945313,
2011-08-05, 00:01:04,VALID,1000.71,VALID,0,VALID,76.8303,VALID,0,VALID,24.4056,VALID,132,VALID,1.10742,
2011-08-05, 00:02:04,VALID,1000.74,VALID,0,VALID,76.9218,VALID,0,VALID,24.3861,VALID,135,VALID,0.954687,
2011-08-05, 00:03:04,VALID,1000.73,VALID,0,VALID,77.0439,VALID,0,VALID,24.3257,VALID,143,VALID,1.00703,
2011-08-05, 00:04:04,VALID,1000.71,VALID,0,VALID,77.0363,VALID,0,VALID,24.3062,VALID,144,VALID,1.15195,
2011-08-05, 00:05:04,VALID,1000.73,VALID,0,VALID,76.815,VALID,0,VALID,24.3647,VALID,151,VALID,1.32461,
2011-08-05, 00:06:04,VALID,1000.71,VALID,0,VALID,76.7998,VALID,0,VALID,24.4056,VALID,151,VALID,1.01328,
2011-08-05, 00:07:04,VALID,1000.69,VALID,0,VALID,76.5938,VALID,0,VALID,24.4251,VALID,175,VALID,1.4207,
2011-08-05, 00:08:04,VALID,1000.64,VALID,0,VALID,76.6014,VALID,0,VALID,24.4446,VALID,150,VALID,1.27969,
2011-08-05, 00:09:04,VALID,1000.64,VALID,0,VALID,76.5022,VALID,0,VALID,24.4837,VALID,152,VALID,1.16016,
2011-08-05, 00:10:04,VALID,1000.62,VALID,0,VALID,76.3801,VALID,0,VALID,24.4837,VALID,149,VALID,1.09805,
2011-08-05, 00:11:04,VALID,1000.58,VALID,0,VALID,76.2886,VALID,0,VALID,24.4837,VALID,154,VALID,1.64219,
2011-08-05, 00:12:04,VALID,1000.54,VALID,0,VALID,76.2123,VALID,0,VALID,24.5032,VALID,147,VALID,1.99375,
2011-08-05, 00:13:04,VALID,1000.51,VALID,0,VALID,76.3267,VALID,0,VALID,24.5013,VALID,138,VALID,1.48203,
2011-08-05, 00:14:04,VALID,1000.48,VALID,0,VALID,76.3649,VALID,0,VALID,24.4837,VALID,132,VALID,1.58242,
2011-08-05, 00:15:04,VALID,1000.44,VALID,0,VALID,76.5785,VALID,0,VALID,24.4446,VALID,132,VALID,1.40937,
2011-08-05, 00:16:04,VALID,1000.39,VALID,0,VALID,76.6853,VALID,0,VALID,24.3824,VALID,131,VALID,1.78242,
2011-08-05, 00:17:04,VALID,1000.37,VALID,0,VALID,77.0592,VALID,0,VALID,24.3647,VALID,132,VALID,1.82695,
2011-08-05, 00:18:04,VALID,1000.34,VALID,0,VALID,77.3033,VALID,0,VALID,24.3062,VALID,137,VALID,1.76602,
2011-08-05, 00:19:04,VALID,1000.33,VALID,0,VALID,77.2423,VALID,0,VALID,24.2866,VALID,138,VALID,2.3957,
2011-08-05, 00:20:04,VALID,1000.31,VALID,0,VALID,77.2957,VALID,0,VALID,24.3062,VALID,143,VALID,2.17656,
2011-08-05, 00:21:04,VALID,1000.29,VALID,0,VALID,77.3033,VALID,0,VALID,24.2848,VALID,132,VALID,2.18164,
2011-08-05, 00:22:04,VALID,1000.3,VALID,0,VALID,77.1889,VALID,0,VALID,24.3062,VALID,128,VALID,2.3125,
2011-08-05, 00:23:04,VALID,1000.28,VALID,0,VALID,77.0134,VALID,0.112286,VALID,24.3257,VALID,130,VALID,2.46328,
2011-08-05, 00:24:04,VALID,1000.26,VALID,0,VALID,76.9981,VALID,0,VALID,24.3238,VALID,125,VALID,1.70625,
2011-08-05, 00:25:04,VALID,1000.29,VALID,0,VALID,76.9676,VALID,0,VALID,24.3452,VALID,131,VALID,1.71758,
2011-08-05, 00:26:04,VALID,1000.26,VALID,0,VALID,76.815,VALID,0,VALID,24.3452,VALID,135,VALID,2.59727,
2011-08-05, 00:27:04,VALID,1000.26,VALID,0,VALID,76.7082,VALID,0,VALID,24.3842,VALID,130,VALID,2.18398,
2011-08-05, 00:28:04,VALID,1000.23,VALID,0,VALID,76.7692,VALID,0,VALID,24.3629,VALID,130,VALID,2.15078,
2011-08-05, 00:29:04,VALID,1000.23,VALID,0,VALID,76.7845,VALID,0,VALID,24.3647,VALID,134,VALID,1.54727,
2011-08-05, 00:30:04,VALID,1000.24,VALID,0,VALID,76.96,VALID,0,VALID,24.3043,VALID,123,VALID,1.55313,
2011-08-05, 00:31:04,VALID,1000.26,VALID,0,VALID,76.7158,VALID,0,VALID,24.347,VALID,134,VALID,2.09336,
2011-08-05, 00:32:04,VALID,1000.26,VALID,0,VALID,76.5175,VALID,0,VALID,24.3452,VALID,141,VALID,2.11172,
2011-08-05, 00:33:04,VALID,1000.3,VALID,0,VALID,76.5175,VALID,0,VALID,24.3842,VALID,123,VALID,1.51602,
2011-08-05, 00:34:04,VALID,1000.31,VALID,0,VALID,76.6243,VALID,0,VALID,24.3861,VALID,130,VALID,1.28437,
2011-08-05, 00:35:04,VALID,1000.29,VALID,0,VALID,76.5098,VALID,0,VALID,24.3452,VALID,136,VALID,2.19219,
2011-08-05, 00:36:04,VALID,1000.27,VALID,0,VALID,76.6243,VALID,0,VALID,24.3666,VALID,124,VALID,1.60977,
2011-08-05, 00:37:04,VALID,1000.24,VALID,0,VALID,76.5327,VALID,0,VALID,24.3452,VALID,129,VALID,2.20469,
2011-08-05, 00:38:04,VALID,1000.25,VALID,0,VALID,76.4717,VALID,0,VALID,24.4056,VALID,122,VALID,1.64414,
2011-08-05, 00:39:04,VALID,1000.24,VALID,0,VALID,76.5404,VALID,0,VALID,24.3861,VALID,118,VALID,1.98594,
2011-08-05, 00:40:04,VALID,1000.25,VALID,0,VALID,76.8303,VALID,0,VALID,24.3666,VALID,119,VALID,1.75625,
2011-08-05, 00:41:04,VALID,1000.19,VALID,0,VALID,76.815,VALID,0,VALID,24.308,VALID,122,VALID,1.69766,
2011-08-05, 00:42:04,VALID,1000.21,VALID,0,VALID,77.0668,VALID,0,VALID,24.2476,VALID,125,VALID,1.37031,
2011-08-05, 00:43:04,VALID,1000.18,VALID,0,VALID,77.1889,VALID,0,VALID,24.2495,VALID,126,VALID,1.09844,
2011-08-05, 00:44:04,VALID,1000.17,VALID,0,VALID,77.1736,VALID,0,VALID,24.1891,VALID,128,VALID,1.4,
2011-08-05, 00:45:04,VALID,1000.14,VALID,0,VALID,77.0821,VALID,0,VALID,24.1696,VALID,102,VALID,1.55234,
2011-08-05, 00:46:04,VALID,1000.13,VALID,0,VALID,77.2041,VALID,0,VALID,24.1696,VALID,121,VALID,1.42188,
2011-08-05, 00:47:04,VALID,1000.13,VALID,0,VALID,77.0439,VALID,0,VALID,24.1891,VALID,123,VALID,1.74648,
2011-08-05, 00:48:04,VALID,1000.15,VALID,0,VALID,77.1278,VALID,0,VALID,24.1909,VALID,128,VALID,1.27773,
2011-08-05, 00:49:04,VALID,1000.14,VALID,0,VALID,77.1431,VALID,0,VALID,24.1696,VALID,127,VALID,1.54844,
2011-08-05, 00:50:04,VALID,1000.13,VALID,0,VALID,77.0286,VALID,0,VALID,24.1891,VALID,126,VALID,1.4043,
2011-08-05, 00:51:04,VALID,1000.11,VALID,0,VALID,77.021,VALID,0,VALID,24.1891,VALID,113,VALID,1.37773,
2011-08-05, 00:52:04,VALID,1000.11,VALID,0,VALID,77.166,VALID,0,VALID,24.1696,VALID,120,VALID,1.36523,
2011-08-05, 00:53:04,VALID,1000.11,VALID,0,VALID,77.4178,VALID,0,VALID,24.1714,VALID,116,VALID,1.28633,
2011-08-05, 00:54:04,VALID,1000.08,VALID,0,VALID,77.433,VALID,0,VALID,24.1305,VALID,123,VALID,1.72109,
2011-08-05, 00:55:04,VALID,1000.09,VALID,0,VALID,77.3033,VALID,0,VALID,24.1714,VALID,117,VALID,1.77188,
2011-08-05, 00:56:04,VALID,1000.04,VALID,0,VALID,76.9295,VALID,0,VALID,24.1909,VALID,124,VALID,1.53672,
2011-08-05, 00:57:04,VALID,1000,VALID,0,VALID,76.7769,VALID,0,VALID,24.2086,VALID,121,VALID,1.61563,
2011-08-05, 00:58:04,VALID,999.997,VALID,0,VALID,76.8303,VALID,0,VALID,24.2495,VALID,113,VALID,1.57969,
2011-08-05, 00:59:04,VALID,999.957,VALID,0,VALID,76.8684,VALID,0,VALID,24.2299,VALID,119,VALID,1.32109,
2011-08-05, 01:00:04,VALID,999.951,VALID,0,VALID,76.7998,VALID,0,VALID,24.2299,VALID,117,VALID,1.65156,
2011-08-05, 01:01:04,VALID,999.963,VALID,0,VALID,76.7998,VALID,0,VALID,24.2263,VALID,125,VALID,1.28555,
2011-08-05, 01:02:04,VALID,999.929,VALID,0,VALID,76.8608,VALID,0,VALID,24.2086,VALID,125,VALID,1.19492,
2011-08-05, 01:03:04,VALID,999.922,VALID,0,VALID,76.754,VALID,0,VALID,24.1677,VALID,126,VALID,1.76133,
2011-08-05, 01:04:04,VALID,999.921,VALID,0,VALID,76.8074,VALID,0,VALID,24.2067,VALID,121,VALID,1.14375,
2011-08-05, 01:05:04,VALID,999.923,VALID,0,VALID,76.7235,VALID,0,VALID,24.2263,VALID,119,VALID,1.44141,
2011-08-05, 01:06:04,VALID,999.917,VALID,0,VALID,76.609,VALID,0,VALID,24.2476,VALID,130,VALID,1.41328,
2011-08-05, 01:07:04,VALID,999.937,VALID,0,VALID,76.548,VALID,0,VALID,24.2263,VALID,139,VALID,1.10664,
2011-08-05, 01:08:04,VALID,999.928,VALID,0,VALID,76.609,VALID,0,VALID,24.2263,VALID,144,VALID,1.45234,
2011-08-05, 01:09:04,VALID,999.909,VALID,0,VALID,76.6395,VALID,0,VALID,24.2263,VALID,142,VALID,1.34375,
2011-08-05, 01:10:04,VALID,999.927,VALID,0,VALID,76.6777,VALID,0,VALID,24.2476,VALID,138,VALID,1.16758,
2011-08-05, 01:11:04,VALID,999.943,VALID,0,VALID,76.6472,VALID,0,VALID,24.2476,VALID,148,VALID,1.49727,
2011-08-05, 01:12:04,VALID,999.946,VALID,0,VALID,76.7006,VALID,0,VALID,24.2281,VALID,132,VALID,1.46055,
2011-08-05, 01:13:04,VALID,999.944,VALID,0,VALID,76.7006,VALID,0,VALID,24.2067,VALID,124,VALID,1.38633,
2011-08-05, 01:14:04,VALID,999.97,VALID,0,VALID,76.7998,VALID,0,VALID,24.2086,VALID,129,VALID,1.24102,
2011-08-05, 01:15:04,VALID,999.984,VALID,0,VALID,76.8989,VALID,0,VALID,24.1891,VALID,139,VALID,1.04922,
2011-08-05, 01:16:04,VALID,1000.02,VALID,0,VALID,76.9829,VALID,0,VALID,24.1696,VALID,140,VALID,0.863672,
2011-08-05, 01:17:04,VALID,1000.02,VALID,0,VALID,77.0744,VALID,0,VALID,24.15,VALID,121,VALID,0.883594,
2011-08-05, 01:18:04,VALID,1000.04,VALID,0,VALID,77.1965,VALID,0,VALID,24.1305,VALID,121,VALID,0.725781,
2011-08-05, 01:19:04,VALID,1000.05,VALID,0,VALID,77.3415,VALID,0,VALID,24.0701,VALID,121,VALID,0.639844,
2011-08-05, 01:20:04,VALID,1000.03,VALID,0,VALID,77.4406,VALID,0,VALID,24.0525,VALID,130,VALID,0.771484,
2011-08-05, 01:21:04,VALID,1000.04,VALID,0,VALID,77.5932,VALID,0,VALID,24.0329,VALID,162,VALID,0.796484,
2011-08-05, 01:22:04,VALID,1000.02,VALID,0,VALID,77.7687,VALID,0,VALID,24.0134,VALID,147,VALID,1.06914,
2011-08-05, 01:23:04,VALID,1000,VALID,0,VALID,77.7153,VALID,0,VALID,23.9921,VALID,156,VALID,1.11484,
2011-08-05, 01:24:04,VALID,999.974,VALID,0,VALID,77.6161,VALID,0,VALID,23.9921,VALID,154,VALID,1.20117,
2011-08-05, 01:25:04,VALID,999.965,VALID,0,VALID,77.4101,VALID,0,VALID,24.0525,VALID,153,VALID,1.05664,
2011-08-05, 01:26:04,VALID,999.891,VALID,0,VALID,77.1507,VALID,0,VALID,24.0915,VALID,153,VALID,0.807813,
2011-08-05, 01:27:04,VALID,999.923,VALID,0,VALID,76.7998,VALID,0,VALID,24.1696,VALID,153,VALID,0.872266,
2011-08-05, 01:28:04,VALID,999.891,VALID,0,VALID,76.7311,VALID,0,VALID,24.1891,VALID,130,VALID,1.33828,
2011-08-05, 01:29:04,VALID,999.862,VALID,0,VALID,76.9218,VALID,0,VALID,24.15,VALID,144,VALID,1.83945,
2011-08-05, 01:30:04,VALID,999.878,VALID,0,VALID,76.9981,VALID,0,VALID,24.1287,VALID,143,VALID,1.60586,
2011-08-05, 01:31:04,VALID,999.862,VALID,0,VALID,77.2499,VALID,0,VALID,24.1305,VALID,137,VALID,1.70547,
2011-08-05, 01:32:04,VALID,999.846,VALID,0,VALID,77.3872,VALID,0,VALID,24.0897,VALID,138,VALID,1.65586,
2011-08-05, 01:33:04,VALID,999.822,VALID,0,VALID,77.4025,VALID,0,VALID,24.0506,VALID,123,VALID,2.07813,
2011-08-05, 01:34:04,VALID,999.847,VALID,0,VALID,77.4712,VALID,0,VALID,24.0701,VALID,135,VALID,1.5625,
2011-08-05, 01:35:04,VALID,999.847,VALID,0,VALID,77.433,VALID,0,VALID,24.072,VALID,130,VALID,1.76016,
2011-08-05, 01:36:04,VALID,999.85,VALID,0,VALID,77.2041,VALID,0,VALID,24.0915,VALID,136,VALID,2.39336,
2011-08-05, 01:37:04,VALID,999.883,VALID,0,VALID,77.1355,VALID,0,VALID,24.1287,VALID,137,VALID,1.84766,
2011-08-05, 01:38:04,VALID,999.908,VALID,0,VALID,76.96,VALID,0,VALID,24.1696,VALID,138,VALID,1.63672,
2011-08-05, 01:39:04,VALID,999.922,VALID,0,VALID,77.0668,VALID,0,VALID,24.1677,VALID,145,VALID,1.43281,
2011-08-05, 01:40:04,VALID,999.914,VALID,0,VALID,76.9447,VALID,0,VALID,24.1677,VALID,139,VALID,1.36211,
2011-08-05, 01:41:04,VALID,999.928,VALID,0,VALID,76.815,VALID,0,VALID,24.1677,VALID,138,VALID,1.73672,
2011-08-05, 01:42:04,VALID,999.989,VALID,0,VALID,76.8837,VALID,0,VALID,24.1677,VALID,140,VALID,1.4957,
2011-08-05, 01:43:04,VALID,999.934,VALID,0,VALID,77.0058,VALID,0,VALID,24.1696,VALID,138,VALID,1.27969,
2011-08-05, 01:44:04,VALID,999.954,VALID,0,VALID,77.0363,VALID,0,VALID,24.1696,VALID,125,VALID,1.64023,
2011-08-05, 01:45:04,VALID,999.928,VALID,0,VALID,77.021,VALID,0,VALID,24.15,VALID,131,VALID,1.9293,
2011-08-05, 01:46:04,VALID,999.937,VALID,0,VALID,77.0058,VALID,0,VALID,24.1714,VALID,121,VALID,1.28203,
2011-08-05, 01:47:04,VALID,999.943,VALID,0,VALID,77.0668,VALID,0,VALID,24.15,VALID,125,VALID,0.910937,
2011-08-05, 01:48:04,VALID,999.896,VALID,0,VALID,77.1431,VALID,0,VALID,24.111,VALID,140,VALID,1.13906,
2011-08-05, 01:49:04,VALID,999.938,VALID,0,VALID,77.2118,VALID,0,VALID,24.0933,VALID,147,VALID,1.65078,
2011-08-05, 01:50:04,VALID,999.947,VALID,0,VALID,77.1049,VALID,0,VALID,24.1519,VALID,162,VALID,0.979688,
2011-08-05, 01:51:04,VALID,999.949,VALID,0,VALID,77.0744,VALID,0,VALID,24.1519,VALID,157,VALID,1.04648,
2011-08-05, 01:52:04,VALID,999.953,VALID,0,VALID,76.9295,VALID,0,VALID,24.1519,VALID,148,VALID,0.776953,
2011-08-05, 01:53:04,VALID,999.978,VALID,0,VALID,77.0821,VALID,0,VALID,24.1324,VALID,148,VALID,0.665625,
2011-08-05, 01:54:04,VALID,999.955,VALID,0,VALID,77.0821,VALID,0,VALID,24.0915,VALID,153,VALID,1.13594,
2011-08-05, 01:55:04,VALID,999.94,VALID,0,VALID,76.9142,VALID,0,VALID,24.1324,VALID,116,VALID,0.535156,
2011-08-05, 01:56:04,VALID,999.901,VALID,0,VALID,76.8532,VALID,0,VALID,24.15,VALID,144,VALID,0.822656,
2011-08-05, 01:57:04,VALID,999.905,VALID,0,VALID,76.8074,VALID,0,VALID,24.15,VALID,144,VALID,1.11875,
2011-08-05, 01:58:04,VALID,999.902,VALID,0,VALID,76.754,VALID,0,VALID,24.1909,VALID,145,VALID,0.974219,
2011-08-05, 01:59:04,VALID,999.845,VALID,0,VALID,76.7082,VALID,0,VALID,24.1891,VALID,146,VALID,1.02305,
2011-08-05, 02:00:04,VALID,999.858,VALID,0,VALID,76.6243,VALID,0,VALID,24.2299,VALID,145,VALID,0.678906,
2011-08-05, 02:01:04,VALID,999.838,VALID,0,VALID,76.6243,VALID,0,VALID,24.2067,VALID,137,VALID,0.956641,
2011-08-05, 02:02:04,VALID,999.777,VALID,0,VALID,76.7616,VALID,0,VALID,24.2067,VALID,145,VALID,1.53633,
2011-08-05, 02:03:04,VALID,999.805,VALID,0,VALID,76.6929,VALID,0,VALID,24.2086,VALID,171,VALID,1.09023,
2011-08-05, 02:04:04,VALID,999.805,VALID,0,VALID,76.7692,VALID,0,VALID,24.2067,VALID,159,VALID,1.39844,
2011-08-05, 02:05:04,VALID,999.804,VALID,0,VALID,76.6243,VALID,0,VALID,24.2067,VALID,153,VALID,1.58125,
2011-08-05, 02:06:04,VALID,999.781,VALID,0,VALID,76.342,VALID,0,VALID,24.2476,VALID,150,VALID,1.42227,
2011-08-05, 02:07:04,VALID,999.805,VALID,0,VALID,76.342,VALID,0,VALID,24.2848,VALID,146,VALID,0.952734,
2011-08-05, 02:08:04,VALID,999.78,VALID,0,VALID,76.3572,VALID,0,VALID,24.2866,VALID,140,VALID,1.18281,
2011-08-05, 02:09:04,VALID,999.79,VALID,0,VALID,76.4717,VALID,0,VALID,24.2671,VALID,140,VALID,1.02383,
2011-08-05, 02:10:04,VALID,999.753,VALID,0,VALID,76.5709,VALID,0,VALID,24.2671,VALID,145,VALID,1.07148,
2011-08-05, 02:11:04,VALID,999.756,VALID,0,VALID,76.6395,VALID,0,VALID,24.2476,VALID,137,VALID,1.01563,
2011-08-05, 02:12:04,VALID,999.728,VALID,0,VALID,76.5404,VALID,0,VALID,24.2476,VALID,148,VALID,1.20391,
2011-08-05, 02:13:04,VALID,999.705,VALID,0,VALID,76.7463,VALID,0.112286,VALID,24.2458,VALID,135,VALID,0.821094,
2011-08-05, 02:14:04,VALID,999.712,VALID,0,VALID,76.7006,VALID,0,VALID,24.2067,VALID,136,VALID,0.933203,
2011-08-05, 02:15:04,VALID,999.711,VALID,0,VALID,76.9218,VALID,0,VALID,24.2086,VALID,125,VALID,0.7875,
2011-08-05, 02:16:04,VALID,999.701,VALID,0,VALID,77.0515,VALID,0,VALID,24.1482,VALID,114,VALID,0.806641,
2011-08-05, 02:17:04,VALID,999.742,VALID,0,VALID,77.5627,VALID,0,VALID,24.1092,VALID,103,VALID,0.308203,
2011-08-05, 02:18:04,VALID,999.731,VALID,0,VALID,78.2494,VALID,0,VALID,24.0915,VALID,97,VALID,0.761328,
2011-08-05, 02:19:04,VALID,999.738,VALID,0,VALID,78.669,VALID,0,VALID,24.0525,VALID,88,VALID,0.474219,
2011-08-05, 02:20:04,VALID,999.74,VALID,0,VALID,78.8979,VALID,0,VALID,23.9921,VALID,88,VALID,0.316406,
2011-08-05, 02:21:04,VALID,999.718,VALID,0,VALID,79.0352,VALID,0,VALID,23.9336,VALID,88,VALID,0.184766,
2011-08-05, 02:22:04,VALID,999.697,VALID,0,VALID,79.1421,VALID,0,VALID,23.875,VALID,88,VALID,0.327344,
2011-08-05, 02:23:04,VALID,999.655,VALID,0,VALID,79.3023,VALID,0,VALID,23.836,VALID,88,VALID,0.381641,
2011-08-05, 02:24:04,VALID,999.624,VALID,0,VALID,79.4091,VALID,0,VALID,23.8183,VALID,88,VALID,0.726172,
2011-08-05, 02:25:04,VALID,999.611,VALID,0,VALID,79.6075,VALID,0,VALID,23.7579,VALID,87,VALID,0.545313,
2011-08-05, 02:26:04,VALID,999.568,VALID,0,VALID,80.0805,VALID,0,VALID,23.7189,VALID,87,VALID,0.373828,
2011-08-05, 02:27:04,VALID,999.523,VALID,0,VALID,80.5001,VALID,0,VALID,23.6622,VALID,87,VALID,0.457422,
2011-08-05, 02:28:04,VALID,999.506,VALID,0,VALID,80.7824,VALID,0,VALID,23.6019,VALID,87,VALID,0.207813,
2011-08-05, 02:29:04,VALID,999.476,VALID,0,VALID,81.2707,VALID,0,VALID,23.5628,VALID,87,VALID,0.4125,
2011-08-05, 02:30:04,VALID,999.437,VALID,0,VALID,81.6217,VALID,0,VALID,23.5043,VALID,87,VALID,0.254687,
2011-08-05, 02:31:04,VALID,999.437,VALID,0,VALID,81.8887,VALID,0,VALID,23.4671,VALID,87,VALID,0.0144531,
2011-08-05, 02:32:04,VALID,999.44,VALID,0,VALID,82.0489,VALID,0,VALID,23.4085,VALID,87,VALID,0.269922,
2011-08-05, 02:33:04,VALID,999.387,VALID,0,VALID,82.1176,VALID,0,VALID,23.3695,VALID,87,VALID,0.439453,
2011-08-05, 02:34:04,VALID,999.368,VALID,0,VALID,82.0489,VALID,0,VALID,23.3287,VALID,126,VALID,0.672266,
2011-08-05, 02:35:04,VALID,999.344,VALID,0,VALID,81.3317,VALID,0,VALID,23.3695,VALID,137,VALID,1.31445,
2011-08-05, 02:36:04,VALID,999.321,VALID,0,VALID,80.6298,VALID,0,VALID,23.4848,VALID,149,VALID,1.36016,
2011-08-05, 02:37:04,VALID,999.273,VALID,0,VALID,79.6075,VALID,0,VALID,23.6427,VALID,147,VALID,1.58359,
2011-08-05, 02:38:04,VALID,999.293,VALID,0,VALID,78.8292,VALID,0,VALID,23.7597,VALID,136,VALID,1.72187,
2011-08-05, 02:39:04,VALID,999.261,VALID,0,VALID,78.3943,VALID,0,VALID,23.836,VALID,135,VALID,1.68477,
2011-08-05, 02:40:04,VALID,999.273,VALID,0,VALID,78.2418,VALID,0.112286,VALID,23.8963,VALID,136,VALID,1.35,
2011-08-05, 02:41:04,VALID,999.288,VALID,0,VALID,78.0205,VALID,0,VALID,23.9336,VALID,127,VALID,1.2,
2011-08-05, 02:42:04,VALID,999.307,VALID,0,VALID,77.8298,VALID,0,VALID,23.9744,VALID,122,VALID,1.31211,
2011-08-05, 02:43:04,VALID,999.279,VALID,0,VALID,77.9518,VALID,0,VALID,23.9549,VALID,121,VALID,0.925781,
2011-08-05, 02:44:04,VALID,999.24,VALID,0,VALID,77.8069,VALID,0,VALID,23.9336,VALID,118,VALID,1.68945,
2011-08-05, 02:45:04,VALID,999.226,VALID,0,VALID,77.9289,VALID,0.112286,VALID,23.9336,VALID,115,VALID,1.14766,
2011-08-05, 02:46:04,VALID,999.189,VALID,0,VALID,78.0205,VALID,0,VALID,23.9159,VALID,117,VALID,1.6125,
2011-08-05, 02:47:04,VALID,999.159,VALID,0,VALID,78.6538,VALID,0,VALID,23.9159,VALID,108,VALID,1.27461,
2011-08-05, 02:48:04,VALID,999.179,VALID,0,VALID,79.1192,VALID,0,VALID,23.8786,VALID,116,VALID,1.11875,
2011-08-05, 02:49:04,VALID,999.161,VALID,0,VALID,79.3557,VALID,0,VALID,23.8396,VALID,113,VALID,1.02617,
2011-08-05, 02:50:04,VALID,999.14,VALID,0,VALID,79.3709,VALID,0,VALID,23.7811,VALID,114,VALID,1.1375,
2011-08-05, 02:51:04,VALID,999.115,VALID,0,VALID,79.4396,VALID,0,VALID,23.7402,VALID,126,VALID,1.22969,
2011-08-05, 02:52:04,VALID,999.073,VALID,0,VALID,79.3709,VALID,0,VALID,23.742,VALID,130,VALID,1.29141,
2011-08-05, 02:53:04,VALID,999.081,VALID,0,VALID,79.2107,VALID,0,VALID,23.742,VALID,126,VALID,1.36875,
2011-08-05, 02:54:04,VALID,999.071,VALID,0,VALID,79.1726,VALID,0,VALID,23.742,VALID,114,VALID,1.32852,
2011-08-05, 02:55:04,VALID,999.013,VALID,0,VALID,78.8369,VALID,0,VALID,23.7012,VALID,133,VALID,1.4918,
2011-08-05, 02:56:04,VALID,998.989,VALID,0,VALID,78.4401,VALID,0,VALID,23.7207,VALID,125,VALID,1.8918,
2011-08-05, 02:57:04,VALID,998.954,VALID,0,VALID,78.0739,VALID,0,VALID,23.8201,VALID,128,VALID,2.17891,
2011-08-05, 02:58:04,VALID,998.93,VALID,0,VALID,77.5704,VALID,0,VALID,23.9159,VALID,124,VALID,2.06523,
2011-08-05, 02:59:04,VALID,998.943,VALID,0,VALID,77.2652,VALID,0,VALID,23.9957,VALID,125,VALID,2.09492,
2011-08-05, 03:00:04,VALID,998.945,VALID,0,VALID,77.1583,VALID,0,VALID,24.0153,VALID,132,VALID,1.99414,
2011-08-05, 03:01:04,VALID,998.917,VALID,0,VALID,77.1583,VALID,0,VALID,24.0329,VALID,128,VALID,2.25156,
2011-08-05, 03:02:04,VALID,998.924,VALID,0,VALID,76.9752,VALID,0,VALID,24.0525,VALID,125,VALID,1.94102,
2011-08-05, 03:03:04,VALID,998.916,VALID,0,VALID,76.8684,VALID,0,VALID,24.0525,VALID,133,VALID,1.89492,
2011-08-05, 03:04:04,VALID,998.913,VALID,0,VALID,77.0439,VALID,0,VALID,24.0506,VALID,136,VALID,1.70273,
2011-08-05, 03:05:04,VALID,998.896,VALID,0,VALID,77.2728,VALID,0,VALID,24.0329,VALID,144,VALID,1.61094,
2011-08-05, 03:06:04,VALID,998.874,VALID,0,VALID,77.3796,VALID,0,VALID,23.9939,VALID,151,VALID,1.72344,
2011-08-05, 03:07:04,VALID,998.831,VALID,0,VALID,77.2804,VALID,0,VALID,23.9939,VALID,144,VALID,2.13398,
2011-08-05, 03:08:04,VALID,998.814,VALID,0,VALID,77.288,VALID,0,VALID,23.9726,VALID,143,VALID,2.55547,
2011-08-05, 03:09:04,VALID,998.735,VALID,0,VALID,77.2957,VALID,0,VALID,23.9939,VALID,146,VALID,2.66875,
2011-08-05, 03:10:04,VALID,998.772,VALID,0,VALID,77.1126,VALID,0,VALID,24.0116,VALID,140,VALID,2.66133,
2011-08-05, 03:11:04,VALID,998.748,VALID,0,VALID,76.9447,VALID,0,VALID,24.0525,VALID,140,VALID,2.59727,
2011-08-05, 03:12:04,VALID,998.757,VALID,0,VALID,77.2041,VALID,0,VALID,24.0525,VALID,142,VALID,2.18984,
2011-08-05, 03:13:04,VALID,998.781,VALID,0,VALID,77.3109,VALID,0,VALID,24.0329,VALID,146,VALID,2.05781,
2011-08-05, 03:14:04,VALID,998.758,VALID,0,VALID,77.3109,VALID,0,VALID,24.0134,VALID,135,VALID,1.95,
2011-08-05, 03:15:04,VALID,998.776,VALID,0,VALID,77.2041,VALID,0,VALID,24.0134,VALID,136,VALID,2.00195,
2011-08-05, 03:16:04,VALID,998.768,VALID,0,VALID,77.2499,VALID,0,VALID,23.9939,VALID,133,VALID,1.94648,
2011-08-05, 03:17:04,VALID,998.78,VALID,0,VALID,77.2652,VALID,0,VALID,23.9744,VALID,136,VALID,2.11758,
2011-08-05, 03:18:04,VALID,998.777,VALID,0,VALID,77.3415,VALID,0,VALID,23.9531,VALID,134,VALID,1.81484,
2011-08-05, 03:19:04,VALID,998.768,VALID,0,VALID,77.4178,VALID,0,VALID,23.9549,VALID,126,VALID,1.72812,
2011-08-05, 03:20:04,VALID,998.744,VALID,0,VALID,77.2575,VALID,0,VALID,23.9549,VALID,136,VALID,2.21055,
2011-08-05, 03:21:04,VALID,998.792,VALID,0,VALID,77.2041,VALID,0,VALID,23.9549,VALID,120,VALID,1.62383,
2011-08-05, 03:22:04,VALID,998.816,VALID,0,VALID,77.0363,VALID,0,VALID,23.9549,VALID,119,VALID,1.7418,
2011-08-05, 03:23:04,VALID,998.849,VALID,0,VALID,77.2499,VALID,0,VALID,23.9531,VALID,102,VALID,1.87109,
2011-08-05, 03:24:04,VALID,998.807,VALID,0,VALID,77.4025,VALID,0.112286,VALID,23.9531,VALID,101,VALID,1.82266,
2011-08-05, 03:25:04,VALID,998.817,VALID,0,VALID,77.166,VALID,0,VALID,23.9549,VALID,108,VALID,1.83242,
2011-08-05, 03:26:04,VALID,998.817,VALID,0,VALID,77.3415,VALID,0,VALID,23.9336,VALID,106,VALID,1.59258,
2011-08-05, 03:27:04,VALID,998.799,VALID,0,VALID,76.9142,VALID,0,VALID,23.9549,VALID,112,VALID,1.81445,
2011-08-05, 03:28:04,VALID,998.771,VALID,0,VALID,76.5404,VALID,0,VALID,23.9939,VALID,108,VALID,2.30391,
2011-08-05, 03:29:04,VALID,998.801,VALID,0,VALID,76.3954,VALID,0,VALID,24.0915,VALID,127,VALID,1.77148,
2011-08-05, 03:30:04,VALID,998.772,VALID,0,VALID,76.3496,VALID,0,VALID,24.072,VALID,120,VALID,1.94648,
2011-08-05, 03:31:04,VALID,998.776,VALID,0,VALID,76.258,VALID,0,VALID,24.0933,VALID,130,VALID,2.37188,
2011-08-05, 03:32:04,VALID,998.799,VALID,0,VALID,76.3191,VALID,0,VALID,24.0915,VALID,126,VALID,1.88281,
2011-08-05, 03:33:04,VALID,998.825,VALID,0,VALID,76.0292,VALID,0,VALID,24.0915,VALID,136,VALID,1.91211,
2011-08-05, 03:34:04,VALID,998.837,VALID,0,VALID,75.8461,VALID,0,VALID,24.111,VALID,143,VALID,1.73906,
2011-08-05, 03:35:04,VALID,998.875,VALID,0,VALID,75.5485,VALID,0,VALID,24.1714,VALID,136,VALID,1.80273,
2011-08-05, 03:36:04,VALID,998.917,VALID,0,VALID,75.5943,VALID,0,VALID,24.1696,VALID,133,VALID,1.52813,
2011-08-05, 03:37:04,VALID,998.998,VALID,0,VALID,75.3349,VALID,0,VALID,24.1891,VALID,128,VALID,1.64219,
2011-08-05, 03:38:04,VALID,998.986,VALID,0,VALID,75.3959,VALID,0,VALID,24.2086,VALID,121,VALID,0.841797,
2011-08-05, 03:39:04,VALID,999.004,VALID,0,VALID,75.3501,VALID,0,VALID,24.1891,VALID,129,VALID,1.13125,
2011-08-05, 03:40:04,VALID,998.995,VALID,0,VALID,75.3578,VALID,0,VALID,24.1909,VALID,137,VALID,1.06875,
2011-08-05, 03:41:04,VALID,999.017,VALID,0,VALID,75.4569,VALID,0,VALID,24.1519,VALID,133,VALID,0.917578,
2011-08-05, 03:42:04,VALID,999.032,VALID,0,VALID,75.5714,VALID,0,VALID,24.1305,VALID,133,VALID,0.625,
2011-08-05, 03:43:04,VALID,999.02,VALID,0,VALID,75.5256,VALID,0,VALID,24.1324,VALID,158,VALID,0.772266,
2011-08-05, 03:44:04,VALID,999.015,VALID,0,VALID,75.7163,VALID,0,VALID,24.072,VALID,160,VALID,0.748438,
2011-08-05, 03:45:04,VALID,999.021,VALID,0,VALID,75.6553,VALID,0,VALID,24.1128,VALID,156,VALID,1.08516,
2011-08-05, 03:46:04,VALID,999.027,VALID,0,VALID,75.7545,VALID,0,VALID,24.0897,VALID,167,VALID,0.933203,